Location: Campestrin
(46.4667°N, 11.7167°E)
Time: 10:27:41
(UTC+00:00)

Meteor 2-21 Rocket - Pass Details

Date: 18 April 2021
Orbit: 935 x 969 km, 82.6° (Epoch: 06 May)

Event Time Altitude Azimuth Distance (km) Brightness Sun altitude
Rises 20:05:15 0° 352° (N) 3,604 8.2 -18.8°
Reaches altitude 10° 20:07:47 10° 356° (N) 2,656 7.4 -19.2°
Maximum altitude 20:13:49 66° 78° (ENE) 1,020 4.4 -19.9°
Enters shadow 20:16:20 36° 148° (SSE) 1,449 4.9 -20.3°
